"Pseudo-MPEC" for P22hXF9

Created 2025 Dec 5 22:35:10 UT using Find_Orb

Click here for an explanation of pseudo-MPECs

 
 Astrometry: 
     P22hXF9* C2025 11 27.54593606 52 22.574+75 18 06.07   ~BRFK 20.81wXNEOCPF52
     P22hXF9  C2025 11 27.55988206 52 23.031+75 18 26.81   ~BRFK 21.13wXNEOCPF52
     P22hXF9  C2025 11 27.58781906 52 24.013+75 19 08.09   ~BRFK 20.78wXNEOCPF52
     P22hXF9  C2025 11 27.64456106 52 26.125+75 20 30.39   ~BRIK 21.00GVNEOCPF51
     P22hXF9  C2025 11 27.64520406 52 26.115+75 20 31.95   ~BRIK 21.04GVNEOCPF51
     P22hXF9 0C2025 11 28.80420906 53 23.111+75 48 43.70   ~BT05 20.3 GXNEOCPR59
     P22hXF9 0C2025 11 28.86417206 53 25.551+75 50 15.04   ~BT0K 21.0 GXNEOCPR59
     P22hXF9 0C2025 11 28.90220806 53 26.821+75 51 08.76   ~BT05x20.1 GXNEOCPR59
     P22hXF9 0C2025 11 28.96611606 53 29.417+75 52 45.73   ~BT0K 20.8 GXNEOCPR59

Station data:
(F51) Pan-STARRS 1, Haleakala  (N20.707234 W156.255910)  US/Hawaii.
   Observers J. Herman, T. Lowe, P. Minguez, A. Schultz, I. Smith. Measurers
   K. Chambers, T. de Boer, J. Fairlamb, H. Gao, M. Huber, C.-C. Lin, E.
   Magnier, Y. Ramanjooloo, R. Wainscoat, R. Weryk. 1.8-m Ritchey-Chrétien +
   CCD.
(F52) Pan-STARRS 2, Haleakala  (N20.707382 W156.255910)  US/Hawaii.
   Observers J. Herman, T. Lowe, P. Minguez, A. Schultz, I. Smith. Measurers
   K. Chambers, T. de Boer, J. Fairlamb, H. Gao, M. Huber, C.-C. Lin, E.
   Magnier, Y. Ramanjooloo, R. Wainscoat, R. Weryk. 1.8-m Ritchey-Chrétien +
   CCD.
(R59) Camarasa Observatory, Astrocamp Nerpio  (N38.165429 W2.326580)  Spain.

Orbital elements:  P22hXF9
   Perihelion 2026 Jan 9.137752 +/- 40.1 TT =  3:18:21.7 (JD 2461049.637752)
Epoch 2025 Nov 28.0 TT = JDT 2461007.5   Earth MOID: 0.8775      AutoNEOCP
M 349.326344909 +/- 10              (J2000 ecliptic)
n   0.253303857 +/- 0.0409          Peri.   87.475920 +/- 25
a   2.473858449 +/- 0.288           Node    14.707361 +/- 4.2
e   0.34236879 +/- 0.0481           Incl.   28.697501 +/- 1.5
P   3.89101                H 18.78  G  0.15   U 10.6
q 1.626886502 +/- 0.0631    Q 3.320830397 +/- 0.512
8 of 9 observations 2025 Nov. 27-28 (34.1 hr); mean residual 0".36
Residuals in arcseconds: 
251127 F52  .06+  .06-    251127 F51  .10+  .36-    251128 R59  .34-  .99+    
251127 F52  .06-  .02+    251127 F51  .03-  .27+    251128 R59( 1.3-  2.2-)   
251127 F52  .07-  .13+    251128 R59  .46+  .55-    251128 R59  .12-  .43-    

Ephemerides (geocentric):
Date (UTC) HH   RA             Dec           delta  r     elong  mag " sig PA
---- --------  ------------   ------------  ------ ------ -----  --- --------
2025 12 05 23  06 55 25.183   +78 28 59.40  .89846 1.6490 122.1 20.9 85.4  31
2025 12 06 00  06 55 24.664   +78 29 50.46  .89841 1.6489 122.1 20.9 86.4  30
2025 12 06 01  06 55 24.129   +78 30 41.47  .89837 1.6488 122.1 20.9 87.3  30
2025 12 06 02  06 55 23.577   +78 31 32.42  .89832 1.6488 122.1 20.9 88.2  30
2025 12 06 03  06 55 23.008   +78 32 23.30  .89828 1.6487 122.1 20.9 89.1  30
2025 12 06 04  06 55 22.422   +78 33 14.12  .89824 1.6487 122.1 20.9 90.1  30
2025 12 06 05  06 55 21.819   +78 34 04.88  .89819 1.6486 122.1 20.9 91.0  30
2025 12 06 06  06 55 21.200   +78 34 55.58  .89815 1.6486 122.1 20.9 92.0  30
2025 12 06 07  06 55 20.563   +78 35 46.22  .89810 1.6485 122.1 20.9 92.9  30
2025 12 06 08  06 55 19.909   +78 36 36.80  .89806 1.6485 122.1 20.9 93.9  30
2025 12 06 09  06 55 19.239   +78 37 27.32  .89802 1.6484 122.1 20.9 94.8  30
2025 12 06 10  06 55 18.551   +78 38 17.77  .89798 1.6484 122.1 20.9 95.8  30
2025 12 06 11  06 55 17.846   +78 39 08.16  .89793 1.6483 122.1 20.9 96.8  30
2025 12 06 12  06 55 17.125   +78 39 58.49  .89789 1.6483 122.1 20.9 97.8  30
2025 12 06 13  06 55 16.385   +78 40 48.76  .89785 1.6482 122.1 20.9 98.7  30
2025 12 06 14  06 55 15.629   +78 41 38.97  .89781 1.6482 122.1 20.9  100  30
2025 12 06 15  06 55 14.855   +78 42 29.11  .89776 1.6481 122.1 20.9  101  30
2025 12 06 16  06 55 14.064   +78 43 19.19  .89772 1.6481 122.1 20.9  102  30
2025 12 06 17  06 55 13.256   +78 44 09.21  .89768 1.6480 122.1 20.9  103  30
2025 12 06 18  06 55 12.430   +78 44 59.17  .89764 1.6480 122.1 20.9  104  30
2025 12 06 19  06 55 11.587   +78 45 49.07  .89760 1.6479 122.1 20.9  105  30
2025 12 06 20  06 55 10.726   +78 46 38.90  .89756 1.6479 122.1 20.9  106  30
2025 12 06 21  06 55 09.848   +78 47 28.67  .89751 1.6478 122.1 20.9  107  30
2025 12 06 22  06 55 08.952   +78 48 18.38  .89747 1.6477 122.1 20.9  108  30
2025 12 06 23  06 55 08.038   +78 49 08.03  .89743 1.6477 122.1 20.9  109  30
2025 12 07 00  06 55 07.107   +78 49 57.61  .89739 1.6476 122.1 20.9  110  30
2025 12 07 01  06 55 06.158   +78 50 47.13  .89735 1.6476 122.1 20.9  111  30
2025 12 07 02  06 55 05.191   +78 51 36.59  .89731 1.6475 122.1 20.9  112  30
2025 12 07 03  06 55 04.207   +78 52 25.98  .89727 1.6475 122.1 20.9  113  30
2025 12 07 04  06 55 03.204   +78 53 15.31  .89723 1.6474 122.1 20.9  114  30
2025 12 07 05  06 55 02.184   +78 54 04.58  .89719 1.6474 122.1 20.9  115  30
2025 12 07 06  06 55 01.146   +78 54 53.78  .89715 1.6473 122.1 20.9  116  30
2025 12 07 07  06 55 00.090   +78 55 42.92  .89711 1.6473 122.1 20.9  117  30
2025 12 07 08  06 54 59.016   +78 56 32.00  .89707 1.6472 122.1 20.9  118  29
2025 12 07 09  06 54 57.923   +78 57 21.02  .89703 1.6472 122.1 20.9  119  29
2025 12 07 10  06 54 56.813   +78 58 09.97  .89700 1.6471 122.0 20.9  120  29
2025 12 07 11  06 54 55.684   +78 58 58.86  .89696 1.6471 122.0 20.9  122  29
2025 12 07 12  06 54 54.538   +78 59 47.68  .89692 1.6470 122.0 20.9  123  29
2025 12 07 13  06 54 53.373   +79 00 36.44  .89688 1.6470 122.0 20.9  124  29
2025 12 07 14  06 54 52.189   +79 01 25.14  .89684 1.6469 122.0 20.9  125  29
2025 12 07 15  06 54 50.988   +79 02 13.77  .89680 1.6469 122.0 20.9  126  29
2025 12 07 16  06 54 49.768   +79 03 02.34  .89677 1.6468 122.0 20.9  127  29
2025 12 07 17  06 54 48.529   +79 03 50.84  .89673 1.6468 122.0 20.9  128  29
2025 12 07 18  06 54 47.273   +79 04 39.28  .89669 1.6467 122.0 20.9  129  29
2025 12 07 19  06 54 45.997   +79 05 27.65  .89665 1.6467 122.0 20.9  130  29
2025 12 07 20  06 54 44.703   +79 06 15.97  .89662 1.6466 122.0 20.9  131  29
2025 12 07 21  06 54 43.391   +79 07 04.21  .89658 1.6466 122.0 20.9  133  29
2025 12 07 22  06 54 42.060   +79 07 52.39  .89654 1.6465 122.0 20.9  134  29